This is the latest recevied weather packets stored in our database for station/object W5LND-10. If no packets are shown the sender has not sent any weather packets the latest 10 day(s).
| Time | Temp. | Humidity | Pressure | Rain* | Wind** | Luminosity | Snow |
|---|---|---|---|---|---|---|---|
| 1777944072 | 29.44° C | 23% | 1000.6 hPa | 0 mm | - | 5 W/m² | - |
| 1777943772 | 29.44° C | 23% | 1000.5 hPa | 0 mm | - | 9 W/m² | - |
| 1777943472 | 29.44° C | 22% | 1000.6 hPa | 0 mm | - | 18 W/m² | - |
| 1777943172 | 30° C | 22% | 1000.6 hPa | 0 mm | - | 23 W/m² | - |
| 1777942872 | 30° C | 22% | 1000.6 hPa | 0 mm | - | 30 W/m² | - |
| 1777942572 | 30° C | 21% | 1000.6 hPa | 0 mm | - | 37 W/m² | - |
| 1777942272 | 30° C | 21% | 1000.7 hPa | 0 mm | - | 39 W/m² | - |
| 1777941972 | 30° C | 21% | 1000.8 hPa | 0 mm | - | 54 W/m² | - |
| 1777941672 | 30° C | 20% | 1000.9 hPa | 0 mm | - | 77 W/m² | - |
| 1777941372 | 30.56° C | 20% | 1001 hPa | 0 mm | - | 70 W/m² | - |
| 1777941072 | 30.56° C | 20% | 1001 hPa | 0 mm | - | 83 W/m² | - |
| 1777940772 | 30.56° C | 20% | 1001 hPa | 0 mm | - | 90 W/m² | - |
| 1777940472 | 30.56° C | 20% | 1001.1 hPa | 0 mm | - | 95 W/m² | - |
| 1777940172 | 30.56° C | 19% | 1001.3 hPa | 0 mm | - | 95 W/m² | - |
| 1777939872 | 31.11° C | 19% | 1001.2 hPa | 0 mm | - | 86 W/m² | - |
| 1777939572 | 30.56° C | 18% | 1001.3 hPa | 0 mm | - | 104 W/m² | - |
| 1777939272 | 30.56° C | 18% | 1001.2 hPa | 0 mm | - | 105 W/m² | - |
| 1777938972 | 30.56° C | 18% | 1001.4 hPa | 0 mm | - | 93 W/m² | - |
| 1777938672 | 31.11° C | 17% | 1001.4 hPa | 0 mm | - | 104 W/m² | - |
| 1777938372 | 31.11° C | 16% | 1001.5 hPa | 0 mm | - | 102 W/m² | - |
| 1777938072 | 31.11° C | 16% | 1001.5 hPa | 0 mm | - | 113 W/m² | - |
| 1777937772 | 31.11° C | 15% | 1001.6 hPa | 0 mm | - | 135 W/m² | - |
| 1777937472 | 31.11° C | 15% | 1001.6 hPa | 0 mm | - | 137 W/m² | - |
| 1777937172 | 31.11° C | 15% | 1001.7 hPa | 0 mm | - | 171 W/m² | - |
| 1777936872 | 31.11° C | 15% | 1001.7 hPa | 0 mm | - | 179 W/m² | - |
* Rain latest hour (hover to see other rain measurements)
** Current wind speed in m/s (hover to see current wind gust speed)